TKSAT-1 (TUPAC KATARI) (39481 NORAD) Tracking and Keplerian Element Data

This shows tracking and keplerian element data for the satellite.

Feedback or suggestion? Click here.




ElementValue
Catalog39481
NameTKSAT-1 (TUPAC KATARI)
Epoch Orbit4380
Epoch Day354.17734582
Epoch Year2025
RAAN193.5455
Inclination0.0496
Eccentricity0.000333
Argument of Perigee93.8628
Mean Anonmoly138.2541
Mean Motion1.00271091
Decay Rate-1.71E-06
L11 39481U 13075A 25354.17734582 -.00000171 00000+0 00000+0 0 9995
L22 39481 0.0496 193.5455 0003330 93.8628 138.2541 1.00271091 43803



Live tracking and technical data element details for TKSAT-1 (TUPAC KATARI) (NORAD 39481). TKSAT-1 (TUPAC KATARI) can be tracked NOW for your location showing map with azimuth and elevation plus other details from your city location.







IsCatalogInMostPopularTable: catalog: 39481, numindb: 566
Update: records affected: 1



GetName: 39481 TKSAT-1 (TUPAC KATARI)

Hit Count: updated at: Thu, 16 Apr 2026 04:43:19 GMT